This demonstration page uses our WeatherBlox Daily Observations layout. Learn more.

Left ArrowRight Arrow

41.12389, -100.76542

Hourly Observations for September 24, 2022

Temp ( °F °C ) Dew Point ( °F °C ) Humidity (%) Winds ( mph kmh ) Pressure ( in mb ) Visibility ( mi km ) Precip ( " mm )
12:53 am 00:53 Clear 48 8.9 43 6.1 83 83 Calm 30.00 1016 10 16 0.00 0.00
1:53 am 01:53 Clear 47 8.3 41 5 80 80 NW 7 11 29.99 1016 10 16 0.00 0.00
2:53 am 02:53 Clear 45 7.2 41 5 86 86 NW 5 7 29.99 1016 10 16 0.00 0.00
3:53 am 03:53 Clear 46 7.8 42 5.6 86 86 WNW 6 9 29.98 1015 10 16 0.00 0.00
4:53 am 04:53 Clear 43 6.1 40 4.4 89 89 NW 3 6 30.00 1016 10 16 0.00 0.00
5:53 am 05:53 Clear 45 7.2 42 5.6 90 90 WNW 5 7 30.00 1016 10 16 0.00 0.00
6:53 am 06:53 Clear 42 5.6 39 3.9 89 89 WNW 6 9 30.03 1017 10 16 0.00 0.00
7:53 am 07:53 Sunny 43 6.1 39 3.9 86 86 Calm 30.05 1018 10 16 0.00 0.00
8:53 am 08:53 Sunny 52 11.1 47 8.3 83 83 Calm 30.05 1018 10 16 0.00 0.00
9:53 am 09:53 Sunny 60 15.6 50 10 69 69 WNW 5 7 30.06 1018 10 16 0.00 0.00
10:53 am 10:53 Sunny 70 21.1 49 9.4 47 47 W 6 9 30.04 1017 10 16 0.00 0.00
11:53 am 11:53 Sunny 78 25.6 49 9.4 36 36 W 7 11 30.02 1017 10 16 0.00 0.00
12:53 pm 12:53 Sunny 82 27.8 44 6.7 26 26 W 12 19 30.01 1016 10 16 0.00 0.00
1:53 pm 13:53 Sunny 84 28.9 42 5.6 23 23 W 10 17 29.99 1016 10 16 0.00 0.00
2:53 pm 14:53 Sunny 84 28.9 41 5 22 22 NW 9 15 29.97 1015 10 16 0.00 0.00
3:53 pm 15:53 Sunny 84 28.9 40 4.4 21 21 W 10 17 29.96 1015 10 16 0.00 0.00
4:53 pm 16:53 Sunny 84 28.9 39 3.9 20 20 W 9 15 29.95 1014 10 16 0.00 0.00
5:53 pm 17:53 Sunny 83 28.3 40 4.4 22 22 W 10 17 29.95 1014 10 16 0.00 0.00
6:53 pm 18:53 Sunny 76 24.4 48 8.9 37 37 NW 6 9 29.98 1015 10 16 0.00 0.00
7:53 pm 19:53 Clear 71 21.7 37 2.8 29 29 NNE 15 24 30.01 1016 10 16 0.00 0.00
8:53 pm 20:53 Clear 68 20 39 3.9 35 35 NNE 14 22 30.05 1018 10 16 0.00 0.00
9:53 pm 21:53 Clear 62 16.7 40 4.4 44 44 NNE 5 7 30.09 1019 10 16 0.00 0.00
10:53 pm 22:53 Clear 57 13.9 42 5.6 57 57 Calm 30.10 1019 10 16 0.00 0.00
11:53 pm 23:53 Clear 54 12.2 41 5 61 61 NW 6 9 30.11 1020 10 16 0.00 0.00

Powered by AerisWeather